owner,sensor,date,latitude,longitude,vertical_datum,sea_water_practical_salinity,qcFlag 
LUMCON,ioos:station:LUMCON:101:1,2017-06-01T00:00:00Z,29.2533,-90.6633,1.23,4.1,1111122 
LUMCON,ioos:station:LUMCON:101:1,2017-06-01T00:15:00Z,29.2533,-90.6633,1.22,4.06,1111122 
LUMCON,ioos:station:LUMCON:101:1,2017-06-01T00:30:00Z,29.2533,-90.6633,1.21,4.01,1111122 
LUMCON,ioos:station:LUMCON:101:1,2017-06-01T00:45:00Z,29.2533,-90.6633,1.21,4.02,1111122 
LUMCON,ioos:station:LUMCON:101:1,2017-06-01T01:00:00Z,29.2533,-90.6633,1.2,4.02,1111122 
LUMCON,ioos:station:LUMCON:101:1,2017-06-01T01:15:00Z,29.2533,-90.6633,1.19,4.02,1111122 
LUMCON,ioos:station:LUMCON:101:1,2017-06-01T01:30:00Z,29.2533,-90.6633,1.19,4.03,1111122 
LUMCON,ioos:station:LUMCON:101:1,2017-06-01T01:45:00Z,29.2533,-90.6633,1.18,4.04,1111122 
LUMCON,ioos:station:LUMCON:101:1,2017-06-01T02:00:00Z,29.2533,-90.6633,1.18,4.05,1111122 
LUMCON,ioos:station:LUMCON:101:1,2017-06-01T02:15:00Z,29.2533,-90.6633,1.17,4.04,1111122 
LUMCON,ioos:station:LUMCON:101:1,2017-06-01T02:30:00Z,29.2533,-90.6633,1.17,4.05,1111122 
LUMCON,ioos:station:LUMCON:101:1,2017-06-01T02:45:00Z,29.2533,-90.6633,1.16,4.06,1111122 
LUMCON,ioos:station:LUMCON:101:1,2017-06-01T03:00:00Z,29.2533,-90.6633,1.16,4.04,1111122 
LUMCON,ioos:station:LUMCON:101:1,2017-06-01T03:15:00Z,29.2533,-90.6633,1.17,4.05,1111122 
LUMCON,ioos:station:LUMCON:101:1,2017-06-01T03:30:00Z,29.2533,-90.6633,1.18,4.04,1111122 
LUMCON,ioos:station:LUMCON:101:1,2017-06-01T03:45:00Z,29.2533,-90.6633,1.2,4.04,1111122 
LUMCON,ioos:station:LUMCON:101:1,2017-06-01T04:00:00Z,29.2533,-90.6633,1.22,4.03,1111122 
LUMCON,ioos:station:LUMCON:101:1,2017-06-01T04:15:00Z,29.2533,-90.6633,1.21,4.03,1111122 
LUMCON,ioos:station:LUMCON:101:1,2017-06-01T04:30:00Z,29.2533,-90.6633,1.2,4.05,1111122 
LUMCON,ioos:station:LUMCON:101:1,2017-06-01T04:45:00Z,29.2533,-90.6633,1.17,4.06,1111122 
LUMCON,ioos:station:LUMCON:101:1,2017-06-01T05:00:00Z,29.2533,-90.6633,1.16,4.07,1111122 
LUMCON,ioos:station:LUMCON:101:1,2017-06-01T05:15:00Z,29.2533,-90.6633,1.15,4.05,1111122 
LUMCON,ioos:station:LUMCON:101:1,2017-06-01T05:30:00Z,29.2533,-90.6633,1.14,4.05,1111122 
LUMCON,ioos:station:LUMCON:101:1,2017-06-01T05:45:00Z,29.2533,-90.6633,1.14,4.07,1111122 
LUMCON,ioos:station:LUMCON:101:1,2017-06-01T06:00:00Z,29.2533,-90.6633,1.14,4.08,1111122 
LUMCON,ioos:station:LUMCON:101:1,2017-06-01T06:15:00Z,29.2533,-90.6633,1.13,4.04,1111122 
LUMCON,ioos:station:LUMCON:101:1,2017-06-01T06:30:00Z,29.2533,-90.6633,1.13,4.05,1111122 
LUMCON,ioos:station:LUMCON:101:1,2017-06-01T06:45:00Z,29.2533,-90.6633,1.13,4.04,1111122 
LUMCON,ioos:station:LUMCON:101:1,2017-06-01T07:00:00Z,29.2533,-90.6633,1.14,4.07,1111122 
LUMCON,ioos:station:LUMCON:101:1,2017-06-01T07:15:00Z,29.2533,-90.6633,1.15,4.03,1111122 
LUMCON,ioos:station:LUMCON:101:1,2017-06-01T07:30:00Z,29.2533,-90.6633,1.16,4.04,1111122 
LUMCON,ioos:station:LUMCON:101:1,2017-06-01T07:45:00Z,29.2533,-90.6633,1.17,4.06,1111122 
LUMCON,ioos:station:LUMCON:101:1,2017-06-01T08:00:00Z,29.2533,-90.6633,1.16,4.07,1111122 
LUMCON,ioos:station:LUMCON:101:1,2017-06-01T08:15:00Z,29.2533,-90.6633,1.15,4.03,1111122 
LUMCON,ioos:station:LUMCON:101:1,2017-06-01T08:30:00Z,29.2533,-90.6633,1.15,4.02,1111122 
LUMCON,ioos:station:LUMCON:101:1,2017-06-01T08:45:00Z,29.2533,-90.6633,1.14,4.03,1111122 
LUMCON,ioos:station:LUMCON:101:1,2017-06-01T09:00:00Z,29.2533,-90.6633,1.16,4.06,1111122 
LUMCON,ioos:station:LUMCON:101:1,2017-06-01T09:15:00Z,29.2533,-90.6633,1.16,4.04,1111122 
LUMCON,ioos:station:LUMCON:101:1,2017-06-01T09:30:00Z,29.2533,-90.6633,1.17,4.06,1111122 
LUMCON,ioos:station:LUMCON:101:1,2017-06-01T09:45:00Z,29.2533,-90.6633,1.17,4.04,1111122 
LUMCON,ioos:station:LUMCON:101:1,2017-06-01T10:00:00Z,29.2533,-90.6633,1.18,4.02,1111122 
LUMCON,ioos:station:LUMCON:101:1,2017-06-01T10:15:00Z,29.2533,-90.6633,1.19,3.91,1111122 
LUMCON,ioos:station:LUMCON:101:1,2017-06-01T10:30:00Z,29.2533,-90.6633,1.2,3.59,1111122 
LUMCON,ioos:station:LUMCON:101:1,2017-06-01T10:45:00Z,29.2533,-90.6633,1.21,3.87,1111122 
LUMCON,ioos:station:LUMCON:101:1,2017-06-01T11:00:00Z,29.2533,-90.6633,1.21,3.4,1111122 
LUMCON,ioos:station:LUMCON:101:1,2017-06-01T11:15:00Z,29.2533,-90.6633,1.22,3.08,1111122 
LUMCON,ioos:station:LUMCON:101:1,2017-06-01T11:30:00Z,29.2533,-90.6633,1.22,3.4,1111122 
LUMCON,ioos:station:LUMCON:101:1,2017-06-01T11:45:00Z,29.2533,-90.6633,1.23,3.33,1111122 
LUMCON,ioos:station:LUMCON:101:1,2017-06-01T12:00:00Z,29.2533,-90.6633,1.24,3.09,1111122 
LUMCON,ioos:station:LUMCON:101:1,2017-06-01T12:15:00Z,29.2533,-90.6633,1.25,2.85,1111122 
LUMCON,ioos:station:LUMCON:101:1,2017-06-01T12:30:00Z,29.2533,-90.6633,1.25,3.11,1111122 
LUMCON,ioos:station:LUMCON:101:1,2017-06-01T12:45:00Z,29.2533,-90.6633,1.26,2.8,1111122 
LUMCON,ioos:station:LUMCON:101:1,2017-06-01T13:00:00Z,29.2533,-90.6633,1.26,2.71,1111122 
LUMCON,ioos:station:LUMCON:101:1,2017-06-01T13:15:00Z,29.2533,-90.6633,1.26,2.88,1111122 
LUMCON,ioos:station:LUMCON:101:1,2017-06-01T13:30:00Z,29.2533,-90.6633,1.26,3.12,1111122 
LUMCON,ioos:station:LUMCON:101:1,2017-06-01T13:45:00Z,29.2533,-90.6633,1.29,2.64,1111122 
LUMCON,ioos:station:LUMCON:101:1,2017-06-01T14:00:00Z,29.2533,-90.6633,1.29,2.85,1111122 
LUMCON,ioos:station:LUMCON:101:1,2017-06-01T14:15:00Z,29.2533,-90.6633,1.31,3.06,1111122 
LUMCON,ioos:station:LUMCON:101:1,2017-06-01T14:30:00Z,29.2533,-90.6633,1.31,2.94,1111122 
LUMCON,ioos:station:LUMCON:101:1,2017-06-01T14:45:00Z,29.2533,-90.6633,1.31,2.61,1111122 
LUMCON,ioos:station:LUMCON:101:1,2017-06-01T15:00:00Z,29.2533,-90.6633,1.32,2.72,1111122 
LUMCON,ioos:station:LUMCON:101:1,2017-06-01T15:15:00Z,29.2533,-90.6633,1.33,2.7,1111122 
LUMCON,ioos:station:LUMCON:101:1,2017-06-01T15:30:00Z,29.2533,-90.6633,1.34,2.7,1111122 
LUMCON,ioos:station:LUMCON:101:1,2017-06-01T15:45:00Z,29.2533,-90.6633,1.34,2.86,1111122 
LUMCON,ioos:station:LUMCON:101:1,2017-06-01T20:00:00Z,29.2533,-90.6633,1.5,3.7,1111122 
LUMCON,ioos:station:LUMCON:101:1,2017-06-01T20:15:00Z,29.2533,-90.6633,1.36,3.14,1111122 
LUMCON,ioos:station:LUMCON:101:1,2017-06-01T20:30:00Z,29.2533,-90.6633,1.33,3.26,1111122 
LUMCON,ioos:station:LUMCON:101:1,2017-06-01T20:45:00Z,29.2533,-90.6633,1.31,3.61,1111122 
LUMCON,ioos:station:LUMCON:101:1,2017-06-01T21:00:00Z,29.2533,-90.6633,1.29,4.05,1111122 
LUMCON,ioos:station:LUMCON:101:1,2017-06-01T21:15:00Z,29.2533,-90.6633,1.26,4.39,1111122 
LUMCON,ioos:station:LUMCON:101:1,2017-06-01T21:30:00Z,29.2533,-90.6633,1.24,4.25,1111122 
LUMCON,ioos:station:LUMCON:101:1,2017-06-01T21:45:00Z,29.2533,-90.6633,1.22,3.85,1111122 
LUMCON,ioos:station:LUMCON:101:1,2017-06-01T22:00:00Z,29.2533,-90.6633,1.22,3.84,1111122 
LUMCON,ioos:station:LUMCON:101:1,2017-06-01T22:15:00Z,29.2533,-90.6633,1.21,3.96,1111122 
LUMCON,ioos:station:LUMCON:101:1,2017-06-01T22:30:00Z,29.2533,-90.6633,1.21,3.7,1111122 
LUMCON,ioos:station:LUMCON:101:1,2017-06-01T22:45:00Z,29.2533,-90.6633,1.2,3.49,1111122 
LUMCON,ioos:station:LUMCON:101:1,2017-06-01T23:00:00Z,29.2533,-90.6633,1.22,3.42,1111122 
LUMCON,ioos:station:LUMCON:101:1,2017-06-01T23:15:00Z,29.2533,-90.6633,1.23,3.44,1111122 
LUMCON,ioos:station:LUMCON:101:1,2017-06-01T23:30:00Z,29.2533,-90.6633,1.24,3.57,1111122 
LUMCON,ioos:station:LUMCON:101:1,2017-06-01T23:45:00Z,29.2533,-90.6633,1.22,3.52,1111122 
LUMCON,ioos:station:LUMCON:101:1,2017-06-02T00:00:00Z,29.2533,-90.6633,1.22,3.55,1111122 
LUMCON,ioos:station:LUMCON:101:1,2017-06-02T00:15:00Z,29.2533,-90.6633,1.21,3.65,1111122 
LUMCON,ioos:station:LUMCON:101:1,2017-06-02T00:30:00Z,29.2533,-90.6633,1.21,3.69,1111122 
LUMCON,ioos:station:LUMCON:101:1,2017-06-02T00:45:00Z,29.2533,-90.6633,1.2,3.55,1111122 
LUMCON,ioos:station:LUMCON:101:1,2017-06-02T01:00:00Z,29.2533,-90.6633,1.19,3.44,1111122 
LUMCON,ioos:station:LUMCON:101:1,2017-06-02T01:15:00Z,29.2533,-90.6633,1.19,3.3,1111122 
LUMCON,ioos:station:LUMCON:101:1,2017-06-02T01:30:00Z,29.2533,-90.6633,1.18,3.2,1111122 
LUMCON,ioos:station:LUMCON:101:1,2017-06-02T01:45:00Z,29.2533,-90.6633,1.18,3.17,1111122 
LUMCON,ioos:station:LUMCON:101:1,2017-06-02T02:00:00Z,29.2533,-90.6633,1.17,3.18,1111122 
LUMCON,ioos:station:LUMCON:101:1,2017-06-02T02:15:00Z,29.2533,-90.6633,1.15,3.2,1111122 
LUMCON,ioos:station:LUMCON:101:1,2017-06-02T02:30:00Z,29.2533,-90.6633,1.15,3.21,1111122 
LUMCON,ioos:station:LUMCON:101:1,2017-06-02T02:45:00Z,29.2533,-90.6633,1.14,3.22,1111122 
LUMCON,ioos:station:LUMCON:101:1,2017-06-02T03:00:00Z,29.2533,-90.6633,1.14,3.22,1111122 
LUMCON,ioos:station:LUMCON:101:1,2017-06-02T03:15:00Z,29.2533,-90.6633,1.14,3.22,1111122 
LUMCON,ioos:station:LUMCON:101:1,2017-06-02T03:30:00Z,29.2533,-90.6633,1.14,3.22,1111122 
LUMCON,ioos:station:LUMCON:101:1,2017-06-02T03:45:00Z,29.2533,-90.6633,1.14,3.21,1111122 
LUMCON,ioos:station:LUMCON:101:1,2017-06-02T04:00:00Z,29.2533,-90.6633,1.15,3.21,1111122 
LUMCON,ioos:station:LUMCON:101:1,2017-06-02T04:15:00Z,29.2533,-90.6633,1.15,3.21,1111122 
LUMCON,ioos:station:LUMCON:101:1,2017-06-02T04:30:00Z,29.2533,-90.6633,1.14,3.21,1111122 
LUMCON,ioos:station:LUMCON:101:1,2017-06-02T04:45:00Z,29.2533,-90.6633,1.13,3.22,1111122 
LUMCON,ioos:station:LUMCON:101:1,2017-06-02T05:00:00Z,29.2533,-90.6633,1.12,3.22,1111122 
LUMCON,ioos:station:LUMCON:101:1,2017-06-02T05:15:00Z,29.2533,-90.6633,1.11,3.22,1111122 
LUMCON,ioos:station:LUMCON:101:1,2017-06-02T05:30:00Z,29.2533,-90.6633,1.12,3.23,1111122 
LUMCON,ioos:station:LUMCON:101:1,2017-06-02T05:45:00Z,29.2533,-90.6633,1.13,3.23,1111122 
LUMCON,ioos:station:LUMCON:101:1,2017-06-02T06:00:00Z,29.2533,-90.6633,1.13,3.23,1111122 
LUMCON,ioos:station:LUMCON:101:1,2017-06-02T06:15:00Z,29.2533,-90.6633,1.12,3.23,1111122 
LUMCON,ioos:station:LUMCON:101:1,2017-06-02T06:30:00Z,29.2533,-90.6633,1.13,3.23,1111122 
LUMCON,ioos:station:LUMCON:101:1,2017-06-02T06:45:00Z,29.2533,-90.6633,1.11,3.25,1111122 
LUMCON,ioos:station:LUMCON:101:1,2017-06-02T07:00:00Z,29.2533,-90.6633,1.11,3.27,1111122 
LUMCON,ioos:station:LUMCON:101:1,2017-06-02T07:15:00Z,29.2533,-90.6633,1.13,3.29,1111122 
LUMCON,ioos:station:LUMCON:101:1,2017-06-02T07:30:00Z,29.2533,-90.6633,1.13,3.29,1111122 
LUMCON,ioos:station:LUMCON:101:1,2017-06-02T07:45:00Z,29.2533,-90.6633,1.13,3.27,1111122 
LUMCON,ioos:station:LUMCON:101:1,2017-06-02T08:00:00Z,29.2533,-90.6633,1.13,3.27,1111122 
LUMCON,ioos:station:LUMCON:101:1,2017-06-02T08:15:00Z,29.2533,-90.6633,1.13,3.3,1111122 
LUMCON,ioos:station:LUMCON:101:1,2017-06-02T08:30:00Z,29.2533,-90.6633,1.14,3.29,1111122 
LUMCON,ioos:station:LUMCON:101:1,2017-06-02T08:45:00Z,29.2533,-90.6633,1.15,3.31,1111122 
LUMCON,ioos:station:LUMCON:101:1,2017-06-02T09:00:00Z,29.2533,-90.6633,1.15,3.32,1111122 
LUMCON,ioos:station:LUMCON:101:1,2017-06-02T09:15:00Z,29.2533,-90.6633,1.14,3.31,1111122 
LUMCON,ioos:station:LUMCON:101:1,2017-06-02T09:30:00Z,29.2533,-90.6633,1.13,3.33,1111122 
LUMCON,ioos:station:LUMCON:101:1,2017-06-02T09:45:00Z,29.2533,-90.6633,1.14,3.26,1111122 
LUMCON,ioos:station:LUMCON:101:1,2017-06-02T10:00:00Z,29.2533,-90.6633,1.15,3.26,1111122 
LUMCON,ioos:station:LUMCON:101:1,2017-06-02T10:15:00Z,29.2533,-90.6633,1.17,3.25,1111122 
LUMCON,ioos:station:LUMCON:101:1,2017-06-02T10:30:00Z,29.2533,-90.6633,1.18,3.07,1111122 
LUMCON,ioos:station:LUMCON:101:1,2017-06-02T10:45:00Z,29.2533,-90.6633,1.19,3.12,1111122 
LUMCON,ioos:station:LUMCON:101:1,2017-06-02T11:00:00Z,29.2533,-90.6633,1.19,3.11,1111122 
LUMCON,ioos:station:LUMCON:101:1,2017-06-02T11:15:00Z,29.2533,-90.6633,1.2,3.04,1111122 
LUMCON,ioos:station:LUMCON:101:1,2017-06-02T11:30:00Z,29.2533,-90.6633,1.21,3.01,1111122 
LUMCON,ioos:station:LUMCON:101:1,2017-06-02T11:45:00Z,29.2533,-90.6633,1.21,3.1,1111122 
LUMCON,ioos:station:LUMCON:101:1,2017-06-02T12:00:00Z,29.2533,-90.6633,1.21,3.08,1111122 
LUMCON,ioos:station:LUMCON:101:1,2017-06-02T12:15:00Z,29.2533,-90.6633,1.23,3.14,1111122 
LUMCON,ioos:station:LUMCON:101:1,2017-06-02T12:30:00Z,29.2533,-90.6633,1.24,3.59,1111122 
LUMCON,ioos:station:LUMCON:101:1,2017-06-02T12:45:00Z,29.2533,-90.6633,1.25,3.97,1111122 
LUMCON,ioos:station:LUMCON:101:1,2017-06-02T13:00:00Z,29.2533,-90.6633,1.26,4.36,1111122 
LUMCON,ioos:station:LUMCON:101:1,2017-06-02T13:15:00Z,29.2533,-90.6633,1.26,4.48,1111122 
LUMCON,ioos:station:LUMCON:101:1,2017-06-02T13:30:00Z,29.2533,-90.6633,1.27,4.59,1111122 
LUMCON,ioos:station:LUMCON:101:1,2017-06-02T13:45:00Z,29.2533,-90.6633,1.27,4.58,1111122 
LUMCON,ioos:station:LUMCON:101:1,2017-06-02T14:00:00Z,29.2533,-90.6633,1.28,4.71,1111122 
LUMCON,ioos:station:LUMCON:101:1,2017-06-02T14:15:00Z,29.2533,-90.6633,1.3,4.77,1111122 
LUMCON,ioos:station:LUMCON:101:1,2017-06-02T14:30:00Z,29.2533,-90.6633,1.31,4.72,1111122 
LUMCON,ioos:station:LUMCON:101:1,2017-06-02T14:45:00Z,29.2533,-90.6633,1.32,4.72,1111122 
LUMCON,ioos:station:LUMCON:101:1,2017-06-02T15:00:00Z,29.2533,-90.6633,1.32,4.66,1111122 
LUMCON,ioos:station:LUMCON:101:1,2017-06-02T15:15:00Z,29.2533,-90.6633,1.32,4.68,1111122 
LUMCON,ioos:station:LUMCON:101:1,2017-06-02T15:30:00Z,29.2533,-90.6633,1.32,4.58,1111122 
LUMCON,ioos:station:LUMCON:101:1,2017-06-02T15:45:00Z,29.2533,-90.6633,1.33,4.47,1111122 
LUMCON,ioos:station:LUMCON:101:1,2017-06-02T16:00:00Z,29.2533,-90.6633,1.33,4.45,1111122 
LUMCON,ioos:station:LUMCON:101:1,2017-06-02T16:15:00Z,29.2533,-90.6633,1.34,4.45,1111122 
LUMCON,ioos:station:LUMCON:101:1,2017-06-02T16:30:00Z,29.2533,-90.6633,1.35,4.45,1111122 
LUMCON,ioos:station:LUMCON:101:1,2017-06-02T16:45:00Z,29.2533,-90.6633,1.35,4.44,1111122 
LUMCON,ioos:station:LUMCON:101:1,2017-06-02T17:00:00Z,29.2533,-90.6633,1.34,4.36,1111122 
LUMCON,ioos:station:LUMCON:101:1,2017-06-02T17:15:00Z,29.2533,-90.6633,1.33,4.39,1111122 
LUMCON,ioos:station:LUMCON:101:1,2017-06-02T17:30:00Z,29.2533,-90.6633,1.32,4.41,1111122 
LUMCON,ioos:station:LUMCON:101:1,2017-06-02T17:45:00Z,29.2533,-90.6633,1.31,4.37,1111122 
LUMCON,ioos:station:LUMCON:101:1,2017-06-02T18:00:00Z,29.2533,-90.6633,1.31,4.34,1111122 
LUMCON,ioos:station:LUMCON:101:1,2017-06-02T18:15:00Z,29.2533,-90.6633,1.31,4.37,1111122 
LUMCON,ioos:station:LUMCON:101:1,2017-06-02T18:30:00Z,29.2533,-90.6633,1.3,4.3,1111122 
LUMCON,ioos:station:LUMCON:101:1,2017-06-02T18:45:00Z,29.2533,-90.6633,1.29,4.26,1111122 
LUMCON,ioos:station:LUMCON:101:1,2017-06-02T19:00:00Z,29.2533,-90.6633,1.29,4.25,1111122 
LUMCON,ioos:station:LUMCON:101:1,2017-06-02T19:15:00Z,29.2533,-90.6633,1.28,4.28,1111122 
LUMCON,ioos:station:LUMCON:101:1,2017-06-02T19:30:00Z,29.2533,-90.6633,1.27,4.32,1111122 
LUMCON,ioos:station:LUMCON:101:1,2017-06-02T19:45:00Z,29.2533,-90.6633,1.27,4.31,1111122 
LUMCON,ioos:station:LUMCON:101:1,2017-06-02T20:00:00Z,29.2533,-90.6633,1.27,4.29,1111122 
LUMCON,ioos:station:LUMCON:101:1,2017-06-02T20:15:00Z,29.2533,-90.6633,1.27,4.28,1111122 
LUMCON,ioos:station:LUMCON:101:1,2017-06-02T20:30:00Z,29.2533,-90.6633,1.27,4.28,1111122 
LUMCON,ioos:station:LUMCON:101:1,2017-06-02T20:45:00Z,29.2533,-90.6633,1.27,4.28,1111122 
LUMCON,ioos:station:LUMCON:101:1,2017-06-02T21:00:00Z,29.2533,-90.6633,1.26,4.27,1111122 
LUMCON,ioos:station:LUMCON:101:1,2017-06-02T21:15:00Z,29.2533,-90.6633,1.25,4.28,1111122 
LUMCON,ioos:station:LUMCON:101:1,2017-06-02T21:30:00Z,29.2533,-90.6633,1.24,4.28,1111122 
LUMCON,ioos:station:LUMCON:101:1,2017-06-02T21:45:00Z,29.2533,-90.6633,1.24,4.29,1111122 
LUMCON,ioos:station:LUMCON:101:1,2017-06-02T22:00:00Z,29.2533,-90.6633,1.25,4.28,1111122 
LUMCON,ioos:station:LUMCON:101:1,2017-06-02T22:15:00Z,29.2533,-90.6633,1.25,4.27,1111122 
LUMCON,ioos:station:LUMCON:101:1,2017-06-02T22:30:00Z,29.2533,-90.6633,1.24,4.26,1111122 
LUMCON,ioos:station:LUMCON:101:1,2017-06-02T22:45:00Z,29.2533,-90.6633,1.24,4.27,1111122 
LUMCON,ioos:station:LUMCON:101:1,2017-06-02T23:00:00Z,29.2533,-90.6633,1.24,4.26,1111122 
LUMCON,ioos:station:LUMCON:101:1,2017-06-02T23:15:00Z,29.2533,-90.6633,1.22,4.29,1111122 
LUMCON,ioos:station:LUMCON:101:1,2017-06-02T23:30:00Z,29.2533,-90.6633,1.21,4.31,1111122 
LUMCON,ioos:station:LUMCON:101:1,2017-06-02T23:45:00Z,29.2533,-90.6633,1.21,4.36,1111122 
LUMCON,ioos:station:LUMCON:101:1,2017-06-03T00:00:00Z,29.2533,-90.6633,1.21,4.34,1111122 
LUMCON,ioos:station:LUMCON:101:1,2017-06-03T00:15:00Z,29.2533,-90.6633,1.22,4.32,1111122 
LUMCON,ioos:station:LUMCON:101:1,2017-06-03T00:30:00Z,29.2533,-90.6633,1.21,4.31,1111122 
LUMCON,ioos:station:LUMCON:101:1,2017-06-03T00:45:00Z,29.2533,-90.6633,1.19,4.32,1111122 
LUMCON,ioos:station:LUMCON:101:1,2017-06-03T01:00:00Z,29.2533,-90.6633,1.18,4.3,1111122 
LUMCON,ioos:station:LUMCON:101:1,2017-06-03T01:15:00Z,29.2533,-90.6633,1.18,4.29,1111122 
LUMCON,ioos:station:LUMCON:101:1,2017-06-03T01:30:00Z,29.2533,-90.6633,1.19,4.26,1111122 
LUMCON,ioos:station:LUMCON:101:1,2017-06-03T01:45:00Z,29.2533,-90.6633,1.19,4.25,1111122 
LUMCON,ioos:station:LUMCON:101:1,2017-06-03T02:00:00Z,29.2533,-90.6633,1.18,4.24,1111122 
LUMCON,ioos:station:LUMCON:101:1,2017-06-03T02:15:00Z,29.2533,-90.6633,1.19,4.21,1111122 
LUMCON,ioos:station:LUMCON:101:1,2017-06-03T02:30:00Z,29.2533,-90.6633,1.19,4.17,1111122 
LUMCON,ioos:station:LUMCON:101:1,2017-06-03T02:45:00Z,29.2533,-90.6633,1.2,4.15,1111122 
LUMCON,ioos:station:LUMCON:101:1,2017-06-03T03:00:00Z,29.2533,-90.6633,1.2,4.15,1111122 
LUMCON,ioos:station:LUMCON:101:1,2017-06-03T03:15:00Z,29.2533,-90.6633,1.2,4.14,1111122 
LUMCON,ioos:station:LUMCON:101:1,2017-06-03T03:30:00Z,29.2533,-90.6633,1.2,4.14,1111122 
LUMCON,ioos:station:LUMCON:101:1,2017-06-03T03:45:00Z,29.2533,-90.6633,1.21,4.18,1111122 
LUMCON,ioos:station:LUMCON:101:1,2017-06-03T04:00:00Z,29.2533,-90.6633,1.21,4.21,1111122 
LUMCON,ioos:station:LUMCON:101:1,2017-06-03T04:15:00Z,29.2533,-90.6633,1.22,4.23,1111122 
LUMCON,ioos:station:LUMCON:101:1,2017-06-03T04:30:00Z,29.2533,-90.6633,1.23,4.23,1111122 
LUMCON,ioos:station:LUMCON:101:1,2017-06-03T04:45:00Z,29.2533,-90.6633,1.24,4.25,1111122 
LUMCON,ioos:station:LUMCON:101:1,2017-06-03T05:00:00Z,29.2533,-90.6633,1.25,4.19,1111122 
LUMCON,ioos:station:LUMCON:101:1,2017-06-03T05:15:00Z,29.2533,-90.6633,1.25,4.18,1111122 
LUMCON,ioos:station:LUMCON:101:1,2017-06-03T05:30:00Z,29.2533,-90.6633,1.25,4.14,1111122 
LUMCON,ioos:station:LUMCON:101:1,2017-06-03T05:45:00Z,29.2533,-90.6633,1.25,4.09,1111122 
LUMCON,ioos:station:LUMCON:101:1,2017-06-03T06:00:00Z,29.2533,-90.6633,1.25,4.07,1111122 
LUMCON,ioos:station:LUMCON:101:1,2017-06-03T06:15:00Z,29.2533,-90.6633,1.25,4.07,1111122 
LUMCON,ioos:station:LUMCON:101:1,2017-06-03T06:30:00Z,29.2533,-90.6633,1.24,4.07,1111122 
LUMCON,ioos:station:LUMCON:101:1,2017-06-03T06:45:00Z,29.2533,-90.6633,1.24,4.08,1111122 
LUMCON,ioos:station:LUMCON:101:1,2017-06-03T07:00:00Z,29.2533,-90.6633,1.23,4.07,1111122 
LUMCON,ioos:station:LUMCON:101:1,2017-06-03T07:15:00Z,29.2533,-90.6633,1.23,4.07,1111122 
LUMCON,ioos:station:LUMCON:101:1,2017-06-03T07:30:00Z,29.2533,-90.6633,1.24,4.03,1111122 
LUMCON,ioos:station:LUMCON:101:1,2017-06-03T07:45:00Z,29.2533,-90.6633,1.24,4.02,1111122 
LUMCON,ioos:station:LUMCON:101:1,2017-06-03T08:00:00Z,29.2533,-90.6633,1.25,4.03,1111122 
LUMCON,ioos:station:LUMCON:101:1,2017-06-03T08:15:00Z,29.2533,-90.6633,1.26,4.03,1111122 
LUMCON,ioos:station:LUMCON:101:1,2017-06-03T08:30:00Z,29.2533,-90.6633,1.26,4.04,1111122 
LUMCON,ioos:station:LUMCON:101:1,2017-06-03T08:45:00Z,29.2533,-90.6633,1.26,4.03,1111122 
LUMCON,ioos:station:LUMCON:101:1,2017-06-03T09:00:00Z,29.2533,-90.6633,1.25,4.04,1111122 
LUMCON,ioos:station:LUMCON:101:1,2017-06-03T09:15:00Z,29.2533,-90.6633,1.25,4.04,1111122 
LUMCON,ioos:station:LUMCON:101:1,2017-06-03T09:30:00Z,29.2533,-90.6633,1.25,4.04,1111122 
LUMCON,ioos:station:LUMCON:101:1,2017-06-03T09:45:00Z,29.2533,-90.6633,1.25,4.07,1111122 
LUMCON,ioos:station:LUMCON:101:1,2017-06-03T10:00:00Z,29.2533,-90.6633,1.26,4.06,1111122 
LUMCON,ioos:station:LUMCON:101:1,2017-06-03T10:15:00Z,29.2533,-90.6633,1.26,4.05,1111122 
LUMCON,ioos:station:LUMCON:101:1,2017-06-03T10:30:00Z,29.2533,-90.6633,1.25,4.03,1111122 
LUMCON,ioos:station:LUMCON:101:1,2017-06-03T10:45:00Z,29.2533,-90.6633,1.25,4.04,1111122 
LUMCON,ioos:station:LUMCON:101:1,2017-06-03T11:00:00Z,29.2533,-90.6633,1.25,4.06,1111122 
LUMCON,ioos:station:LUMCON:101:1,2017-06-03T11:15:00Z,29.2533,-90.6633,1.25,4.07,1111122 
LUMCON,ioos:station:LUMCON:101:1,2017-06-03T11:30:00Z,29.2533,-90.6633,1.25,4.1,1111122 
LUMCON,ioos:station:LUMCON:101:1,2017-06-03T11:45:00Z,29.2533,-90.6633,1.26,4.13,1111122 
LUMCON,ioos:station:LUMCON:101:1,2017-06-03T12:00:00Z,29.2533,-90.6633,1.27,4.12,1111122 
LUMCON,ioos:station:LUMCON:101:1,2017-06-03T12:15:00Z,29.2533,-90.6633,1.27,4.11,1111122 
LUMCON,ioos:station:LUMCON:101:1,2017-06-03T12:30:00Z,29.2533,-90.6633,1.27,4.07,1111122 
LUMCON,ioos:station:LUMCON:101:1,2017-06-03T12:45:00Z,29.2533,-90.6633,1.27,4.03,1111122 
LUMCON,ioos:station:LUMCON:101:1,2017-06-03T13:00:00Z,29.2533,-90.6633,1.27,4.02,1111122 
LUMCON,ioos:station:LUMCON:101:1,2017-06-03T13:15:00Z,29.2533,-90.6633,1.27,4.0,1111122 
LUMCON,ioos:station:LUMCON:101:1,2017-06-03T13:30:00Z,29.2533,-90.6633,1.27,3.97,1111122 
LUMCON,ioos:station:LUMCON:101:1,2017-06-03T13:45:00Z,29.2533,-90.6633,1.28,3.93,1111122 
LUMCON,ioos:station:LUMCON:101:1,2017-06-03T14:00:00Z,29.2533,-90.6633,1.28,3.81,1111122 
LUMCON,ioos:station:LUMCON:101:1,2017-06-03T14:15:00Z,29.2533,-90.6633,1.28,3.74,1111122 
LUMCON,ioos:station:LUMCON:101:1,2017-06-03T14:30:00Z,29.2533,-90.6633,1.29,3.55,1111122 
LUMCON,ioos:station:LUMCON:101:1,2017-06-03T14:45:00Z,29.2533,-90.6633,1.3,3.47,1111122 
LUMCON,ioos:station:LUMCON:101:1,2017-06-03T15:00:00Z,29.2533,-90.6633,1.3,3.41,1111122 
LUMCON,ioos:station:LUMCON:101:1,2017-06-03T15:15:00Z,29.2533,-90.6633,1.3,3.4,1111122 
LUMCON,ioos:station:LUMCON:101:1,2017-06-03T15:30:00Z,29.2533,-90.6633,1.3,3.45,1111122 
LUMCON,ioos:station:LUMCON:101:1,2017-06-03T15:45:00Z,29.2533,-90.6633,1.3,3.62,1111122 
LUMCON,ioos:station:LUMCON:101:1,2017-06-03T16:00:00Z,29.2533,-90.6633,1.3,4.18,1111122 
LUMCON,ioos:station:LUMCON:101:1,2017-06-03T16:15:00Z,29.2533,-90.6633,1.3,4.36,1111122 
LUMCON,ioos:station:LUMCON:101:1,2017-06-03T16:30:00Z,29.2533,-90.6633,1.31,4.43,1111122 
LUMCON,ioos:station:LUMCON:101:1,2017-06-03T16:45:00Z,29.2533,-90.6633,1.31,4.4,1111122 
LUMCON,ioos:station:LUMCON:101:1,2017-06-03T17:00:00Z,29.2533,-90.6633,1.31,4.45,1111122 
LUMCON,ioos:station:LUMCON:101:1,2017-06-03T17:15:00Z,29.2533,-90.6633,1.32,4.48,1111122 
LUMCON,ioos:station:LUMCON:101:1,2017-06-03T17:30:00Z,29.2533,-90.6633,1.3,4.75,1111122 
LUMCON,ioos:station:LUMCON:101:1,2017-06-03T17:45:00Z,29.2533,-90.6633,1.28,4.9,1111122 
LUMCON,ioos:station:LUMCON:101:1,2017-06-03T18:00:00Z,29.2533,-90.6633,1.24,4.68,1111122 
LUMCON,ioos:station:LUMCON:101:1,2017-06-03T18:15:00Z,29.2533,-90.6633,1.22,4.62,1111122 
LUMCON,ioos:station:LUMCON:101:1,2017-06-03T18:30:00Z,29.2533,-90.6633,1.21,4.54,1111122 
LUMCON,ioos:station:LUMCON:101:1,2017-06-03T18:45:00Z,29.2533,-90.6633,1.21,4.45,1111122 
LUMCON,ioos:station:LUMCON:101:1,2017-06-03T19:00:00Z,29.2533,-90.6633,1.2,4.38,1111122 
LUMCON,ioos:station:LUMCON:101:1,2017-06-03T19:15:00Z,29.2533,-90.6633,1.2,4.3,1111122 
LUMCON,ioos:station:LUMCON:101:1,2017-06-03T19:30:00Z,29.2533,-90.6633,1.2,4.23,1111122 
LUMCON,ioos:station:LUMCON:101:1,2017-06-03T19:45:00Z,29.2533,-90.6633,1.19,4.16,1111122 
LUMCON,ioos:station:LUMCON:101:1,2017-06-03T20:00:00Z,29.2533,-90.6633,1.17,4.12,1111122 
LUMCON,ioos:station:LUMCON:101:1,2017-06-03T20:15:00Z,29.2533,-90.6633,1.15,4.02,1111122 
LUMCON,ioos:station:LUMCON:101:1,2017-06-03T20:30:00Z,29.2533,-90.6633,1.14,3.89,1111122 
LUMCON,ioos:station:LUMCON:101:1,2017-06-03T20:45:00Z,29.2533,-90.6633,1.12,3.78,1111122 
LUMCON,ioos:station:LUMCON:101:1,2017-06-03T21:00:00Z,29.2533,-90.6633,1.11,3.73,1111122 
LUMCON,ioos:station:LUMCON:101:1,2017-06-03T21:15:00Z,29.2533,-90.6633,1.1,3.69,1111122 
LUMCON,ioos:station:LUMCON:101:1,2017-06-03T21:30:00Z,29.2533,-90.6633,1.09,3.71,1111122 
LUMCON,ioos:station:LUMCON:101:1,2017-06-03T21:45:00Z,29.2533,-90.6633,1.07,3.72,1111122 
LUMCON,ioos:station:LUMCON:101:1,2017-06-03T22:00:00Z,29.2533,-90.6633,1.07,3.74,1111122 
LUMCON,ioos:station:LUMCON:101:1,2017-06-03T22:15:00Z,29.2533,-90.6633,1.05,3.77,1111122 